Time,TemperatureF,DewpointF,PressureIn,WindDirection,WindDirectionDegrees,WindSpeedMPH,WindSpeedGustMPH,Humidity,HourlyPrecipIn,Conditions,Clouds,dailyrainin,SoftwareType,DateUTC
2013-10-19 00:24:00,62.0,57.0,29.91,ESE,102,0.0,0.0,84,0.00,,,0.00,,2013-10-19 04:24:00,
2013-10-19 00:44:00,61.0,56.0,29.90,ESE,102,0.0,0.0,84,0.00,,,0.00,,2013-10-19 04:44:00,
2013-10-19 00:54:00,61.0,56.0,29.90,ESE,102,0.0,0.0,84,0.00,,,0.00,,2013-10-19 04:54:00,
2013-10-19 01:13:00,61.0,56.0,29.89,ESE,102,0.0,0.0,84,0.00,,,0.00,,2013-10-19 05:13:00,
2013-10-19 01:22:00,61.0,56.0,29.89,ESE,102,0.0,0.0,85,0.00,,,0.00,,2013-10-19 05:22:00,
2013-10-19 01:42:00,61.0,56.0,29.89,ESE,102,0.0,0.0,84,0.00,,,0.00,,2013-10-19 05:42:00,
2013-10-19 01:52:00,62.0,57.0,29.89,ESE,102,0.0,0.0,85,0.00,,,0.00,,2013-10-19 05:52:00,
2013-10-19 02:22:00,62.0,58.0,29.88,ESE,102,0.0,0.0,86,0.00,,,0.00,,2013-10-19 06:22:00,
2013-10-19 02:42:00,62.0,58.0,29.87,ESE,102,0.0,0.0,86,0.00,,,0.00,,2013-10-19 06:42:00,
2013-10-19 02:52:00,62.0,57.0,29.88,ESE,102,0.0,0.0,85,0.00,,,0.00,,2013-10-19 06:52:00,
2013-10-19 03:22:00,62.0,58.0,29.87,ESE,102,0.0,0.0,86,0.00,,,0.00,,2013-10-19 07:22:00,
2013-10-19 03:42:00,61.0,57.0,29.85,ESE,102,0.0,0.0,86,0.00,,,0.00,,2013-10-19 07:42:00,
2013-10-19 03:53:00,61.0,57.0,29.86,ESE,102,0.0,0.0,86,0.00,,,0.00,,2013-10-19 07:53:00,
2013-10-19 04:11:00,61.0,57.0,29.85,ESE,102,0.0,0.0,86,0.00,,,0.00,,2013-10-19 08:11:00,
2013-10-19 04:22:00,61.0,56.0,29.85,ESE,102,0.0,0.0,85,0.00,,,0.00,,2013-10-19 08:22:00,
2013-10-19 04:42:00,62.0,58.0,29.86,ESE,102,0.0,0.0,86,0.00,,,0.00,,2013-10-19 08:42:00,
2013-10-19 04:52:00,62.0,58.0,29.86,ESE,102,0.0,0.0,86,0.00,,,0.00,,2013-10-19 08:52:00,
2013-10-19 05:21:00,62.0,58.0,29.84,ESE,102,0.0,0.0,87,0.00,,,0.00,,2013-10-19 09:21:00,
2013-10-19 05:54:00,62.0,58.0,29.86,ESE,102,0.0,0.0,87,0.00,,,0.00,,2013-10-19 09:54:00,
2013-10-19 06:23:00,62.0,58.0,29.85,ESE,102,0.0,0.0,88,0.00,,,0.00,,2013-10-19 10:23:00,
2013-10-19 06:53:00,61.0,58.0,29.85,ESE,102,0.0,0.0,89,0.00,,,0.00,,2013-10-19 10:53:00,
2013-10-19 07:12:00,61.0,58.0,29.85,ESE,102,0.0,0.0,90,0.00,,,0.00,,2013-10-19 11:12:00,
2013-10-19 07:22:00,61.0,58.0,29.85,ESE,102,0.0,0.0,91,0.00,,,0.00,,2013-10-19 11:22:00,
2013-10-19 07:52:00,62.0,60.0,29.85,ESE,102,0.0,0.0,93,0.00,,,0.00,,2013-10-19 11:52:00,
2013-10-19 08:12:00,62.0,60.0,29.84,ESE,102,0.0,0.0,93,0.00,,,0.00,,2013-10-19 12:12:00,
2013-10-19 08:22:00,62.0,60.0,29.85,ESE,102,0.0,0.0,94,0.00,,,0.00,,2013-10-19 12:22:00,
2013-10-19 08:43:00,62.0,61.0,29.85,ESE,103,0.0,1.0,95,0.00,,,0.00,,2013-10-19 12:43:00,
2013-10-19 08:52:00,62.0,61.0,29.86,ESE,103,0.0,0.0,95,0.00,,,0.00,,2013-10-19 12:52:00,
2013-10-19 09:12:00,62.0,61.0,29.85,ESE,103,0.0,0.0,96,0.00,,,0.00,,2013-10-19 13:12:00,
2013-10-19 09:22:00,62.0,61.0,29.85,ESE,103,0.0,1.0,96,0.00,,,0.00,,2013-10-19 13:22:00,
2013-10-19 09:42:00,62.0,61.0,29.86,ESE,103,0.0,0.0,96,0.00,,,0.00,,2013-10-19 13:42:00,
2013-10-19 09:52:00,62.0,61.0,29.86,ESE,103,0.0,0.0,95,0.00,,,0.00,,2013-10-19 13:52:00,
2013-10-19 10:22:00,63.0,62.0,29.86,ESE,106,0.0,1.0,95,0.00,,,0.00,,2013-10-19 14:22:00,
2013-10-19 10:42:00,63.0,61.0,29.87,ESE,106,0.0,0.0,94,0.00,,,0.00,,2013-10-19 14:42:00,
2013-10-19 10:52:00,64.0,62.0,29.85,ESE,106,0.0,2.0,94,0.00,,,0.00,,2013-10-19 14:52:00,
2013-10-19 11:22:00,65.0,63.0,29.85,SSE,167,0.0,3.0,93,0.00,,,0.00,,2013-10-19 15:22:00,
2013-10-19 11:55:00,65.0,63.0,29.85,SSE,161,1.0,3.0,92,0.00,,,0.00,,2013-10-19 15:55:00,
2013-10-19 12:24:00,65.0,63.0,29.84,SSE,161,0.0,1.0,92,0.00,,,0.00,,2013-10-19 16:24:00,
2013-10-19 12:53:00,65.0,63.0,29.83,SSE,161,0.0,3.0,93,0.00,,,0.00,,2013-10-19 16:53:00,
2013-10-19 13:22:00,66.0,64.0,29.82,South,179,0.0,3.0,93,0.00,,,0.00,,2013-10-19 17:22:00,
2013-10-19 13:43:00,66.0,63.0,29.81,South,178,1.0,3.0,91,0.00,,,0.00,,2013-10-19 17:43:00,
2013-10-19 13:52:00,67.0,64.0,29.80,SSE,158,4.0,6.0,91,0.00,,,0.00,,2013-10-19 17:52:00,
2013-10-19 14:22:00,68.0,64.0,29.78,South,182,0.0,5.0,88,0.00,,,0.00,,2013-10-19 18:22:00,
2013-10-19 14:52:00,68.0,64.0,29.78,South,176,0.0,6.0,87,0.00,,,0.00,,2013-10-19 18:52:00,
2013-10-19 15:12:00,68.0,64.0,29.79,South,187,1.0,4.0,87,0.00,,,0.00,,2013-10-19 19:12:00,
2013-10-19 15:22:00,68.0,64.0,29.78,South,183,0.0,4.0,87,0.00,,,0.00,,2013-10-19 19:22:00,
2013-10-19 15:42:00,68.0,64.0,29.78,South,180,1.0,5.0,86,0.00,,,0.00,,2013-10-19 19:42:00,
2013-10-19 15:52:00,68.0,64.0,29.78,South,178,1.0,3.0,88,0.00,,,0.00,,2013-10-19 19:52:00,
2013-10-19 16:12:00,68.0,64.0,29.77,South,176,0.0,2.0,87,0.00,,,0.00,,2013-10-19 20:12:00,
2013-10-19 16:22:00,68.0,64.0,29.77,South,175,0.0,2.0,87,0.00,,,0.00,,2013-10-19 20:22:00,
2013-10-19 16:42:00,68.0,64.0,29.76,South,175,1.0,2.0,87,0.00,,,0.00,,2013-10-19 20:42:00,
2013-10-19 16:52:00,68.0,64.0,29.76,South,175,0.0,3.0,88,0.00,,,0.00,,2013-10-19 20:52:00,
2013-10-19 17:22:00,68.0,65.0,29.78,South,175,0.0,1.0,89,0.00,,,0.00,,2013-10-19 21:22:00,
2013-10-19 17:54:00,68.0,65.0,29.79,South,175,0.0,3.0,90,0.00,,,0.00,,2013-10-19 21:54:00,
2013-10-19 18:24:00,67.0,64.0,29.79,South,185,0.0,2.0,89,0.00,,,0.00,,2013-10-19 22:24:00,
2013-10-19 18:43:00,67.0,64.0,29.79,South,187,0.0,3.0,89,0.00,,,0.00,,2013-10-19 22:43:00,
2013-10-19 18:53:00,67.0,64.0,29.80,South,187,0.0,1.0,89,0.00,,,0.00,,2013-10-19 22:53:00,
2013-10-19 19:12:00,66.0,63.0,29.80,South,187,0.0,0.0,89,0.00,,,0.00,,2013-10-19 23:12:00,
2013-10-19 19:22:00,66.0,63.0,29.79,South,187,0.0,0.0,91,0.00,,,0.00,,2013-10-19 23:22:00,
2013-10-19 19:42:00,66.0,64.0,29.79,South,187,0.0,0.0,92,0.00,,,0.00,,2013-10-19 23:42:00,
2013-10-19 19:53:00,66.0,64.0,29.80,South,187,0.0,0.0,93,0.00,,,0.00,,2013-10-19 23:53:00,
2013-10-19 20:11:00,65.0,63.0,29.81,South,187,0.0,0.0,94,0.00,,,0.00,,2013-10-20 00:11:00,
2013-10-19 20:22:00,65.0,63.0,29.81,South,187,0.0,0.0,94,0.00,,,0.00,,2013-10-20 00:22:00,
2013-10-19 20:42:00,65.0,64.0,29.80,South,187,0.0,0.0,95,0.00,,,0.00,,2013-10-20 00:42:00,
2013-10-19 20:52:00,64.0,63.0,29.81,South,187,0.0,0.0,95,0.00,,,0.00,,2013-10-20 00:52:00,
2013-10-19 21:22:00,64.0,63.0,29.81,South,187,0.0,0.0,96,0.00,,,0.00,,2013-10-20 01:22:00,
2013-10-19 21:42:00,64.0,63.0,29.82,South,187,0.0,0.0,96,0.00,,,0.00,,2013-10-20 01:42:00,
2013-10-19 21:52:00,64.0,63.0,29.82,South,187,0.0,0.0,96,0.00,,,0.00,,2013-10-20 01:52:00,
2013-10-19 22:02:00,64.0,63.0,29.82,South,187,0.0,0.0,96,0.00,,,0.00,,2013-10-20 02:02:00,
2013-10-19 22:12:00,64.0,63.0,29.82,South,187,0.0,0.0,96,0.00,,,0.00,,2013-10-20 02:12:00,